Select another period ( hide this area )

Units Period Custom range Directly to
Metric English Both
Daily Weekly Monthly Yearly
use both date-selectors for a custom range
previous Day
With this date

WeatherUnderground graphs for this period ( click here ) Loading the graph can take up to a minute!


Daily Summary for Tuesday Oct 23 2018
Time Temp. ( °C ) Dew pt. ( °C ) Wind ( km/h ) From Gust ( km/h ) Pressure ( hPa ) Humid.( % ) Rainrate ( cm )
High8,3 5,0 1,4 West ( 1/7 ) 3,2 1034,8 91 -
Average6,5 4,3 0,2 Kalm #36/41 1,1 1033,6 86 -
Low5,1 3,6 -   0,0 1032,4 79 -
Daily Tabular details for Tuesday Oct 23 2018
Time Temp. ( °C ) Dew pt. ( °C ) Wind ( km/h ) From Gust ( km/h ) Pressure ( hPa ) Humid.( % ) Rainrate ( cm )
00:04 8,0 4,9   Kalm 3,2 1034,8 81 -
00:09 8,2 5,0   Kalm 1,6 1034,8 80 -
00:14 8,2 5,0   Kalm 3,2 1034,4 80 -
00:19 8,3 4,9   Kalm   1034,4 79 -
00:24 8,3 4,9   Kalm 1,6 1034,4 79 -
00:29 8,3 4,9   Kalm 1,6 1034,4 79 -
00:34 8,3 4,9   Kalm 1,6 1034,1 79 -
00:39 8,3 4,9   Kalm   1034,1 79 -
00:44 8,1 4,9   Kalm   1034,1 80 -
00:49 7,9 4,8   Kalm   1034,1 81 -
00:54 7,7 4,8   Kalm   1034,1 82 -
00:59 7,4 4,7   Kalm   1033,7 83 -
01:04 7,2 4,7   Kalm   1033,7 84 -
01:09 6,9 4,4   Kalm   1033,7 84 -
01:14 6,8 4,5 1,4 West 1,6 1033,7 85 -
01:19 6,7 4,5   Kalm 1,6 1033,7 86 -
01:24 6,5 4,3   Kalm 1,6 1033,7 86 -
01:29 6,4 4,2   Kalm   1033,7 86 -
01:33 6,3 4,3   Kalm   1033,7 87 -
01:39 6,2 4,2   Kalm   1033,7 87 -
01:44 6,1 4,3   Kalm 3,2 1033,7 88 -
01:49 6,1 4,3   Kalm   1033,7 88 -
01:54 6,0 4,2   Kalm 1,6 1033,7 88 -
01:58 5,9 4,1   Kalm   1033,7 88 -
02:04 5,9 4,2   Kalm   1033,7 89 -
02:09 5,8 4,1 1,4 SW 1,6 1033,4 89 -
02:14 5,8 4,1   Kalm 1,6 1033,4 89 -
02:19 5,7 4,0   Kalm 1,6 1033,4 89 -
02:24 5,7 4,2   Kalm   1033,7 90 -
02:29 5,6 4,1 1,4 WNW 1,6 1033,7 90 -
02:34 5,6 4,1   Kalm 1,6 1033,4 90 -
02:39 5,6 4,1   Kalm   1033,4 90 -
02:44 5,6 4,1 1,4 East 1,6 1033,4 90 -
02:49 5,5 4,0 1,4 ESE 1,6 1033,1 90 -
02:54 5,4 3,9   Kalm 1,6 1033,1 90 -
02:59 5,4 3,9   Kalm 1,6 1032,7 90 -
03:04 5,3 3,8   Kalm 1,6 1032,7 90 -
03:09 5,3 3,8   Kalm 1,6 1032,7 90 -
03:14 5,2 3,7   Kalm 1,6 1032,7 90 -
03:19 5,1 3,6   Kalm 1,6 1032,4 90 -
03:24 5,1 3,8   Kalm   1032,4 91 -
Daily Summary for Tuesday Oct 23 2018
Time Temp. ( °C ) Dew pt. ( °C ) Wind ( km/h ) From Gust ( km/h ) Pressure ( hPa ) Humid.( % ) Rainrate ( cm )
High8,3 5,0 1,4 West ( 1/7 ) 3,2 1034,8 91 -
Average6,5 4,3 0,2 Kalm #36/41 1,1 1033,6 86 -
Low5,1 3,6 -   0,0 1032,4 79 -
Daily Tabular details for Tuesday Oct 23 2018
Time Temp. ( °C ) Dew pt. ( °C ) Wind ( km/h ) From Gust ( km/h ) Pressure ( hPa ) Humid.( % ) Rainrate ( cm )
00:04 8,0 4,9   Kalm 3,2 1034,8 81 -
00:09 8,2 5,0   Kalm 1,6 1034,8 80 -
00:14 8,2 5,0   Kalm 3,2 1034,4 80 -
00:19 8,3 4,9   Kalm   1034,4 79 -
00:24 8,3 4,9   Kalm 1,6 1034,4 79 -
00:29 8,3 4,9   Kalm 1,6 1034,4 79 -
00:34 8,3 4,9   Kalm 1,6 1034,1 79 -
00:39 8,3 4,9   Kalm   1034,1 79 -
00:44 8,1 4,9   Kalm   1034,1 80 -
00:49 7,9 4,8   Kalm   1034,1 81 -
00:54 7,7 4,8   Kalm   1034,1 82 -
00:59 7,4 4,7   Kalm   1033,7 83 -
01:04 7,2 4,7   Kalm   1033,7 84 -
01:09 6,9 4,4   Kalm   1033,7 84 -
01:14 6,8 4,5 1,4 West 1,6 1033,7 85 -
01:19 6,7 4,5   Kalm 1,6 1033,7 86 -
01:24 6,5 4,3   Kalm 1,6 1033,7 86 -
01:29 6,4 4,2   Kalm   1033,7 86 -
01:33 6,3 4,3   Kalm   1033,7 87 -
01:39 6,2 4,2   Kalm   1033,7 87 -
01:44 6,1 4,3   Kalm 3,2 1033,7 88 -
01:49 6,1 4,3   Kalm   1033,7 88 -
01:54 6,0 4,2   Kalm 1,6 1033,7 88 -
01:58 5,9 4,1   Kalm   1033,7 88 -
02:04 5,9 4,2   Kalm   1033,7 89 -
02:09 5,8 4,1 1,4 SW 1,6 1033,4 89 -
02:14 5,8 4,1   Kalm 1,6 1033,4 89 -
02:19 5,7 4,0   Kalm 1,6 1033,4 89 -
02:24 5,7 4,2   Kalm   1033,7 90 -
02:29 5,6 4,1 1,4 WNW 1,6 1033,7 90 -
02:34 5,6 4,1   Kalm 1,6 1033,4 90 -
02:39 5,6 4,1   Kalm   1033,4 90 -
02:44 5,6 4,1 1,4 East 1,6 1033,4 90 -
02:49 5,5 4,0 1,4 ESE 1,6 1033,1 90 -
02:54 5,4 3,9   Kalm 1,6 1033,1 90 -
02:59 5,4 3,9   Kalm 1,6 1032,7 90 -
03:04 5,3 3,8   Kalm 1,6 1032,7 90 -
03:09 5,3 3,8   Kalm 1,6 1032,7 90 -
03:14 5,2 3,7   Kalm 1,6 1032,7 90 -
03:19 5,1 3,6   Kalm 1,6 1032,4 90 -
03:24 5,1 3,8   Kalm   1032,4 91 -

Download your copy of this data-set  from WeatherUnderground

Our weather-data as stored at Weather Underground. Original script b Jim McMurry. Rewritten for template use Leuven-Template